Location: Arnolds Mill
(42.3415°N, 73.5951°W)
Time: 06:06:37
(UTC+00:00)

Oscar 11 - Pass Details

Date: 15 May 2026
Orbit: 591 x 601 km, 97.8° (Epoch: 11 June)

Event Time Altitude Azimuth Distance (km) Brightness Sun altitude
Rises 08:27:53 0° 12° (NNE) 2,860 11.4 -11.0°
Reaches altitude 10° 08:30:04 10° 13° (NNE) 1,952 10.4 -10.6°
Maximum altitude 08:34:19 87° 101° (E) 607 7.0 -10.0°
Drops below altitude 10° 08:38:32 10° 193° (SSW) 1,932 9.2 -9.4°
Enters shadow 08:39:33 - 193° (SSW) 2,356 9.6 -9.2°
